This demonstration page uses our WeatherBlox Daily Observations layout. Learn more.

Hourly Observations for July 6, 2015

Temp ( °F °C ) Dew Point ( °F °C ) Humidity (%) Winds ( mph kmh ) Pressure ( in mb ) Visibility ( mi km ) Precip ( " mm )
12:15 am 00:15 Partly Cloudy with Light Rain 80 26.8 62 16.8 54 54 SW 3 6 29.68 1005 10 16.0934 0 0
12:35 am 00:35 Clear with Light Rain 78 25.5 65 18.3 64 64 Calm 29.68 1005 10 16.0934 0 0
12:55 am 00:55 Clear 77 24.8 67 19.4 72 72 SE 6 9 29.68 1005 10 16.0934 0 0
1:15 am 01:15 Partly Cloudy 76 24.3 66 19 72 72 ESE 7 11 29.71 1006 10 16.0934 0 0
1:35 am 01:35 Clear 77 24.9 64 18 66 66 ESE 8 13 29.74 1007 10 16.0934 0 0
1:55 am 01:55 Clear 75 24.1 65 18.6 71 71 ESE 7 11 29.71 1006 10 16.0934 0 0
2:15 am 02:15 Partly Cloudy 74 23.3 67 19.3 78 78 N 14 22 29.74 1007 10 16.0934 0 0
2:35 am 02:35 Partly Cloudy 76 24.2 63 17.4 66 66 N 15 24 29.74 1007 10 16.0934 0 0
2:55 am 02:55 Clear 71 21.9 65 18.3 80 80 N 14 22 29.77 1008 10 16.0934 0 0
3:15 am 03:15 Partly Cloudy 70 21.3 66 18.7 85 85 NNE 10 17 29.8 1009 10 16.0934 0 0
3:35 am 03:35 Partly Cloudy 70 21 66 18.7 87 87 NNE 10 17 29.8 1009 10 16.0934 0 0
3:55 am 03:55 Clear 69 20.8 66 18.8 88 88 NNE 8 13 29.77 1008 10 16.0934 0 0
4:15 am 04:15 Clear 69 20.8 66 18.7 88 88 N 7 11 29.8 1009 10 16.0934 0 0
4:35 am 04:35 Clear with Light Rain 69 20.7 66 18.7 88 88 N 8 13 29.8 1009 10 16.0934 0 0
4:55 am 04:55 Clear 69 20.5 66 18.8 90 90 N 7 11 29.8 1009 10 16.0934 0 0
5:15 am 05:15 Clear 69 20.6 66 18.8 89 89 NNW 9 15 29.83 1010 10 16.0934 0 0
5:35 am 05:35 Clear with Thunderstorms 69 20.6 66 18.8 89 89 N 8 13 29.8 1009 10 16.0934 0 0
5:55 am 05:55 Partly Cloudy with Thunderstorms 69 20.5 66 18.9 91 91 N 9 15 29.83 1010 10 16.0934 0 0
6:15 am 06:15 Cloudy 69 20.5 66 19 91 91 NE 10 17 29.8 1009 7 11.26538 0.04 1.016
6:35 am 06:35 Cloudy 69 20.5 66 19 91 91 ENE 8 13 29.83 1010 10 16.0934 0.06 1.524
6:55 am 06:55 Cloudy with Light Rain 68 20.2 66 19 93 93 NNE 10 17 29.8 1009 10 16.0934 0.07 1.778
7:15 am 07:15 Cloudy with Light Rain 69 20.3 66 19.1 93 93 N 5 7 29.83 1010 10 16.0934 0.01 0.254
7:35 am 07:35 Mostly Cloudy with Light Rain 69 20.3 67 19.2 93 93 N 10 17 29.85 1011 10 16.0934 0.01 0.254
7:55 am 07:55 Mostly Cloudy with Light Rain 69 20.3 67 19.2 93 93 N 16 26 29.85 1011 10 16.0934 0.01 0.254
8:15 am 08:15 Cloudy with Rain 68 20.2 66 19 93 93 N 12 19 29.85 1011 10 16.0934 0 0
8:35 am 08:35 Cloudy with Light Rain 68 20.1 66 18.8 92 92 N 10 17 29.85 1011 10 16.0934 0 0
8:55 am 08:55 Cloudy with Light Rain 68 20.1 66 19 93 93 N 15 24 29.85 1011 10 16.0934 0.01 0.254
9:15 am 09:15 Cloudy with Light Rain 68 20.1 66 18.8 92 92 N 14 22 29.85 1011 10 16.0934 0 0
9:35 am 09:35 Cloudy 68 20.2 66 18.8 92 92 N 14 22 29.88 1012 10 16.0934 0 0
9:55 am 09:55 Cloudy 69 20.5 66 19 91 91 N 14 22 29.88 1012 10 16.0934 0 0
10:15 am 10:15 Cloudy 68 20.1 65 18.1 88 88 N 21 33 29.91 1013 10 16.0934 0 0
10:35 am 10:35 Cloudy 69 20.5 64 18 86 86 N 22 35 29.91 1013 10 16.0934 0 0
10:55 am 10:55 Cloudy 69 20.5 64 17.7 84 84 N 22 35 29.91 1013 10 16.0934 0 0
11:15 am 11:15 Cloudy 68 20.1 64 17.5 85 85 N 20 31 29.91 1013 10 16.0934 0 0
11:35 am 11:35 Cloudy 69 20.5 63 17.3 82 82 N 15 24 29.94 1014 10 16.0934 0 0
11:55 am 11:55 Cloudy 69 20.3 63 17.2 82 82 NNE 17 28 29.94 1014 10 16.0934 0 0
12:15 pm 12:15 Cloudy 69 20.3 63 17 81 81 N 17 28 29.94 1014 10 16.0934 0 0
12:35 pm 12:35 Cloudy 68 20.2 63 17 82 82 N 20 31 29.94 1014 10 16.0934 0 0
12:55 pm 12:55 Cloudy 68 20.1 62 16.9 82 82 N 18 30 30 1016 10 16.0934 0 0
1:15 pm 13:15 Cloudy 68 20 62 16.7 81 81 N 17 28 30 1016 10 16.0934 0 0
1:35 pm 13:35 Cloudy 68 20.2 62 16.6 80 80 N 18 30 30 1016 7 11.26538 0 0
1:55 pm 13:55 Cloudy 72 22 63 17.3 75 75 N 20 31 29.97 1015 7 11.26538 0 0
2:15 pm 14:15 Mostly Cloudy 73 22.9 63 17 69 69 N 21 33 29.97 1015 7 11.26538 0 0
2:35 pm 14:35 Mostly Cloudy 73 22.7 60 15.6 64 64 N 17 28 29.97 1015 7 11.26538 0 0
2:55 pm 14:55 Mostly Cloudy 74 23.6 61 16 63 63 N 21 33 29.94 1014 7 11.26538 0 0
3:15 pm 15:15 Sunny 74 23.4 59 15 59 59 N 21 33 29.97 1015 7 11.26538 0 0
3:35 pm 15:35 Sunny 75 23.7 57 14.1 55 55 N 23 37 29.94 1014 7 11.26538 0 0
3:55 pm 15:55 Hazy 76 24.2 57 13.7 52 52 N 18 30 29.94 1014 5 8.0467 0 0
4:15 pm 16:15 Hazy 75 24 58 14.2 54 54 N 17 28 29.91 1013 4 6.43736 0 0
4:35 pm 16:35 Hazy 75 23.7 53 11.5 46 46 NNE 25 41 29.91 1013 4 6.43736 0 0
4:55 pm 16:55 Hazy 75 24.1 56 13.1 50 50 N 21 33 29.91 1013 4 6.43736 0 0
5:15 pm 17:15 Hazy 76 24.2 54 12.2 47 47 N 20 31 29.91 1013 4 6.43736 0 0
5:35 pm 17:35 Hazy 75 23.9 52 11.2 45 45 N 20 31 29.91 1013 5 8.0467 0 0
5:55 pm 17:55 Hazy 74 23.3 52 10.9 46 46 N 21 33 29.97 1015 4 6.43736 0 0
6:15 pm 18:15 Hazy 74 23.5 52 11 45 45 NNE 18 30 29.94 1014 4 6.43736 0 0
6:35 pm 18:35 Hazy 74 23.3 53 11.6 48 48 NNE 16 26 29.97 1015 4 6.43736 0 0
6:55 pm 18:55 Hazy 73 23 54 12 50 50 NNE 15 24 29.94 1014 4 6.43736 0 0
7:15 pm 19:15 Hazy 73 22.5 55 12.6 54 54 N 16 26 29.97 1015 4 6.43736 0 0
7:35 pm 19:35 Hazy 72 22.2 54 12.1 53 53 NNE 16 26 29.97 1015 4 6.43736 0 0
7:55 pm 19:55 Hazy 71 21.8 55 13 57 57 NNE 12 19 29.97 1015 4 6.43736 0 0
8:15 pm 20:15 Hazy 71 21.5 55 13 59 59 NNE 12 19 30 1016 4 6.43736 0 0
8:35 pm 20:35 Hazy 69 20.8 55 13 61 61 NNE 13 20 30 1016 4 6.43736 0 0
8:55 pm 20:55 Hazy 68 20.1 55 12.8 63 63 NNE 10 17 30.03 1017 4 6.43736 0 0
9:15 pm 21:15 Hazy 66 18.9 56 13.2 70 70 NNE 8 13 30.06 1018 5 8.0467 0 0
9:35 pm 21:35 Hazy 64 18 56 13.5 75 75 N 8 13 30.06 1018 5 8.0467 0 0
9:55 pm 21:55 Hazy 64 17.5 56 13.5 78 78 N 9 15 30.06 1018 5 8.0467 0 0
10:15 pm 22:15 Clear 63 17.4 55 12.5 73 73 NNE 8 13 30.09 1019 7 11.26538 0 0
10:35 pm 22:35 Clear 62 16.5 55 12.5 77 77 N 7 11 30.09 1019 7 11.26538 0 0
10:55 pm 22:55 Clear 60 15.8 54 12.3 80 80 NNE 7 11 30.09 1019 7 11.26538 0 0
11:15 pm 23:15 Clear 59 15 54 12.3 84 84 N 7 11 30.09 1019 7 11.26538 0 0
11:35 pm 23:35 Clear 58 14.5 54 12.1 86 86 N 6 9 30.09 1019 7 11.26538 0 0
11:55 pm 23:55 Clear 58 14.5 54 12 85 85 NNE 8 13 30.09 1019 7 11.26538 0 0

Powered by AerisWeather